#timestamp,LO_Frequency,Hit 
1502006415.3,286046993.3,N
1502006435.1,286046993.7,N
1502006455.9,286046995.4,N
1502006475.7,286046995.7,N
1502006495.5,286046994.1,N
1502006515.4,286046994.0,N
1502006535.2,286046996.2,N
1502006555.0,286046995.9,N
1502006555.9,286046995.9,N
1502006575.8,286046995.3,N
1502006595.6,286046995.8,N
1502006615.4,286046994.0,N
1502006635.3,286046993.4,N
1502006655.1,286046993.4,P
1502006656.0,286046993.4,P
1502006675.8,286046997.2,N
1502006695.7,286046997.6,N
1502006715.5,286046995.3,N
1502006735.3,286046996.7,N
1502006755.2,286046996.8,N
1502006775.9,286046997.3,N
1502006795.7,286046995.0,P
1502006815.6,286046996.6,P
1502006835.4,286046998.5,N
1502006855.2,286047001.0,N
1502006875.1,286047004.0,N
1502006876.0,286047004.0,N
1502006895.8,286047007.4,N
1502006915.6,286047005.0,N
1502006935.5,286047003.0,N
1502006955.3,286047005.8,N
1502006975.1,286047005.2,N
1502006995.8,286047005.9,N
1502007015.7,286047004.1,N
1502007035.5,286047002.4,N
1502007055.3,286047000.1,N
1502007075.2,286047000.3,N
1502007095.9,286046999.7,N
1502007115.7,286047002.3,N
1502007135.6,286047000.5,N
1502007155.4,286046998.8,N
1502007175.2,286046998.5,N
1502007195.3,286047002.7,N
1502007215.2,286047000.4,N
1502007235.9,286047002.2,N
1502007255.7,286047002.3,N
1502007275.9,286047000.2,N
1502007295.7,286046999.4,N
1502007315.5,286046996.9,N
1502007335.4,286046997.0,N
1502007355.6,286046998.8,N
1502007375.4,286047000.0,N
1502007395.2,286047000.6,N
1502007415.1,286046996.7,N
1502007416.0,286046996.7,N
1502007435.8,286046995.0,N
1502007455.6,286046997.1,N
1502007475.5,286046995.1,N
1502007495.3,286046995.7,N
1502007515.1,286046995.6,N
1502007535.9,286046996.2,N
1502007555.7,286046995.1,N
1502007575.5,286046996.2,N
1502007595.4,286046995.3,N
1502007615.2,286047000.7,N
1502007635.0,286046998.2,N
1502007635.9,286046998.2,N
1502007655.8,286046999.5,N
1502007675.6,286047001.2,N
1502007695.4,286046999.0,N
1502007715.3,286046996.8,N
1502007735.1,286046998.0,N
1502007736.0,286046998.0,N
1502007755.8,286046998.7,N
1502007775.7,286046998.7,N
1502007795.5,286047000.9,N
1502007815.3,286046998.5,N
1502007835.1,286046998.5,N
1502007855.9,286046997.0,N
1502007875.7,286046998.4,N
1502007895.5,286046999.0,N
1502007915.4,286046998.8,N
1502007935.2,286046998.3,N
1502007955.0,286047000.8,N
1502007955.9,286047000.8,N
1502007975.8,286046998.3,N
1502007995.6,286047000.3,N
1502008015.4,286047000.8,N
1502008035.3,286046996.6,N
1502008055.1,286047000.8,N
1502008056.0,286047000.8,N
1502008075.8,286047000.7,N
1502008095.7,286046998.8,N
1502008115.5,286046997.2,N
1502008135.3,286046995.0,P
1502008155.2,286046994.3,N
1502008175.9,286046994.7,N
1502008195.7,286046991.7,P
1502008215.6,286046995.0,N
1502008235.4,286046994.6,P
1502008255.3,286046992.4,P
1502008275.1,286046998.9,N
1502008276.0,286046998.9,N
1502008295.8,286046995.0,N
1502008315.6,286046997.0,N
1502008335.5,286046997.2,N
1502008355.3,286046997.8,N
1502008375.1,286046996.2,N
1502008395.9,286046995.2,N
1502008415.7,286046995.4,N
1502008435.5,286046996.8,N
1502008455.4,286046999.3,N
1502008475.2,286046998.6,N
1502008495.0,286047000.8,N
1502008495.9,286047000.8,N
1502008515.8,286047000.5,N
1502008535.6,286047002.8,N
1502008555.4,286047000.9,N
1502008575.3,286047000.3,N
1502008595.1,286047000.6,N
1502008596.0,286047000.6,N
1502008615.8,286046998.9,N
1502008635.6,286046999.9,N
1502008655.5,286046999.8,N
1502008675.3,286047002.3,N
1502008695.1,286047002.4,N
1502008715.9,286047002.2,N
1502008735.5,286047000.8,N
1502008755.3,286046999.2,N
1502008775.1,286046998.6,N
1502008795.9,286046997.2,N
1502008815.7,286046996.8,N
1502008835.5,286046998.3,N
1502008855.4,286046999.8,N
1502008875.2,286047000.1,N
1502008895.0,286047002.7,N
1502008895.9,286047002.7,N
1502008915.8,286046999.7,N
1502008935.6,286046998.1,N
1502008955.4,286047001.1,N
1502008975.2,286046998.6,N
1502008995.1,286046998.3,N
1502008996.0,286046998.3,N
1502009015.8,286046999.8,N
1502009035.6,286047003.6,N
1502009055.5,286047002.6,N
1502009075.3,286047001.7,N
1502009095.1,286047002.5,N
1502009115.9,286047000.8,N
1502009135.7,286046999.1,N
1502009155.5,286046998.7,N
1502009175.4,286046996.6,N
1502009195.2,286046996.8,N
1502009215.0,286046997.8,N
1502009215.9,286046997.8,N
1502009235.8,286046996.5,N
1502009255.6,286046998.1,N
1502009275.4,286047000.8,N
1502009295.3,286046999.9,N
1502009315.1,286047002.8,N
1502009316.0,286047002.8,N
1502009335.8,286047000.4,N
1502009355.7,286047001.0,N
1502009375.5,286047000.2,N
1502009395.3,286046999.8,N
1502009415.2,286047002.4,N
1502009435.9,286047001.2,N
1502009455.7,286047002.6,N
1502009475.6,286047002.1,N
1502009495.4,286047001.8,N
1502009515.2,286047002.8,N
1502009535.0,286047002.5,N
1502009535.9,286047002.5,N
1502009555.8,286047002.6,N
1502009575.6,286046999.7,N
1502009595.4,286047001.9,N
1502009615.3,286047000.6,N
1502009635.1,286047002.5,N
1502009655.8,286047002.3,N
1502009675.7,286047002.0,N
1502009695.5,286047000.5,N
1502009715.3,286047000.5,N
1502009735.2,286046998.6,N
1502009755.0,286046999.2,N
1502009755.9,286046999.2,N
1502009775.7,286046995.7,N
1502009795.6,286046993.8,P
1502009815.4,286046994.5,N
1502009835.3,286046990.5,N
1502009855.1,286046991.2,N
1502009856.0,286046991.2,N
1502009875.8,286046987.3,P
1502009895.7,286046996.8,N
1502009915.5,286046996.1,N
1502009935.3,286046997.1,N
1502009955.2,286046999.2,N
1502009975.9,286046995.8,N
1502009995.7,286046996.7,N
